Weather Roundup
Issued by NWS Springfield, MO

Home | Current Version | Previous Version | Text Only | Print | Product List | Glossary On
Versions: 1 2 3 4 5 6 7 8 9 10 11 12 13 14 15 16 17 18 19 20 21 22 23 24 25 26 27 28 29 30 31 32 33 34 35 36 37 38 39 40 41 42 43 44 45 46 47 48 49 50
769
NZUS99 KSGF 232107
HRRSGF

HOURLY WEATHER
NATIONAL WEATHER SERVICE SPRINGFIELD MO
400 PM CDT FRI JUN 23 2017

......SGF CWA......

CITY           SKY/WX    TMP DP  RH WIND       PRES   REMARKS
SPRINGFIELD    CLOUDY    77  67  71 N15       29.90S
JOPLIN         SUNNY     84  62  47 NE12G18   29.90F
WEST PLAINS    RAIN      73  71  93 SE13      29.79F FOG
ROLLA          CLOUDY    73  60  63 NW9       29.87R
OSAGE BEACH    CLOUDY    79  60  52 VRB6      29.89S
BRANSON        PTSUNNY   68  68 100 NW8       29.90S

......SURROUNDING SGF CWA......

CITY           SKY/WX    TMP DP  RH WIND       PRES   REMARKS
CHANUTE        SUNNY     86  53  32 N17G25    29.94R
PARSONS        SUNNY     87  55  33 N14G23    29.94R
COFFEYVILLE    SUNNY     89  57  33 N16       29.90R
EMPORIA        SUNNY     78  52  40 N13G18    29.99S
GROVE OK       SUNNY     82  64  54 NE10G20   29.89F
ROGERS AR      CLOUDY    74  70  87 N12G17    29.91S
SILOAM SPRINGS CLOUDY    79  68  69 NE12G18   29.90R
HARRISON AR    CLOUDY    68  68 100 NW5       29.89F
NEAR YELLVILLE CLOUDY    72  64  78 W5        29.82S

......KANSAS AND MISSOURI......

CITY           SKY/WX    TMP DP  RH WIND       PRES   REMARKS
KANSAS CTY INT PTSUNNY   77  53  43 N15       29.96S
DOWNTOWN KC    SUNNY     82  50  32 N15G22    29.93S
COLUMBIA       PTSUNNY   83  59  44 N16       29.87S
SEDALIA        SUNNY     83  58  42 N14G25    29.91R
ST JOSEPH      MOSUNNY   79  51  37 NW20G26   29.96S
ST LOUIS       CLOUDY    83  55  38 N14       29.79R
SPIRIT OF STL  CLOUDY    82  57  42 NW14      29.79R
KIRKSVILLE     SUNNY     81  50  33 NW12G21   29.89R
WICHITA        LGT RAIN  78  55  44 N16       30.00F
TOPEKA         SUNNY     78  54  43 N13       29.99R
OLATHE         SUNNY     80  51  36 N16       29.96R

......TENNESSEE......

CITY           SKY/WX    TMP DP  RH WIND       PRES   REMARKS
MEMPHIS        CLOUDY    84  78  82 W8        29.81R HX  95
NASHVILLE      LGT RAIN  78  73  84 SW18G25   29.70S

......ARKANSAS.......

CITY           SKY/WX    TMP DP  RH WIND       PRES   REMARKS
FAYETTEVILLE   CLOUDY    72  69  90 VRB3      29.90R
FT SMITH       MOSUNNY   93  75  55 W15G21    29.79S HX 104
LITTLE ROCK    PTSUNNY   89  80  74 SW8       29.79S HX 106

......OKLAHOMA.......

CITY           SKY/WX    TMP DP  RH WIND       PRES   REMARKS
TULSA          MOSUNNY   88  65  46 NE12      29.84F HX  90
PONCA CITY     CLOUDY    84  51  31 N21G28    29.94R
MCALESTER      MOSUNNY   93  73  52 N14       29.84S HX 102
OKLAHOMA CITY  PTSUNNY   90  67  46 NE14      29.90F HX  93

......IOWA............

CITY           SKY/WX    TMP DP  RH WIND       PRES   REMARKS
DES MOINES     PTSUNNY   74  52  46 NW14G26   29.90S
QUAD CITIES    PTSUNNY   81  55  40 NW17      29.77R

......ILLINOIS........

CITY           SKY/WX    TMP DP  RH WIND       PRES   REMARKS
QUINCY         CLOUDY    81  57  43 NW14      29.83R
CHICAGO        PTSUNNY   82  46  28 NW18      29.71R




USA.gov is the U.S. government's official web portal to all federal, state and local government web resources and services.